Flag for China Weather past 2 weeks in Dalian, Liaoning, China

Now
86 °F

Fog.


Feels Like: 99 °F
Forecast: 76 / 84 °F
Wind: 8 mph from Southeast

Location: Dalian Airport

Current Time: Jul 29, 2015 at 11:49:02 AM

Latest Report: Jul 29, 2015 at 11:00 AM


Visibility: 1 mi

Pressure: 29.62 "Hg

Humidity: 79%

Dew point: 79 °F

Location of DalianLocation

Historic Weather in Dalian — Graph

°F

Dalian temperature yesterday

Maximum temperature yesterday: 88 °F (at 2:00 PM)
Minimum temperature yesterday: 77 °F (at 4:30 AM)
Average temperature yesterday: 82 °F

Past Weeks' High & Low Weather Summary

 TemperatureHumidityPressure
High97 °F (Jul 14, 11:30 AM)100% (Jul 16, 3:30 AM)29.86 "Hg (Jul 16, 3:30 AM)
Low70 °F (Jul 19, 2:30 AM)25% (Jul 14, 11:30 AM)29.56 "Hg (Jul 25, 4:00 AM)
Average79 °F76%29.70 "Hg
* Reported Jul 14 10:00 AM — Jul 29 10:30 AM, Dalian, Weather by CustomWeather, © 2015

Note: Actual official high and low records may vary slightly from our data, if they occured in-between our weather recording intervals... More about our weather records

Advertising

Dalian weather history for previous 24 hours

 ConditionsComfort  
Time TempWeatherWind HumidityBarometerVisibility
10:30 AM
Wed, Jul 29
84 °FFog.10 mph84%29.62 "Hg1 mi
10:00 AM84 °FFog.10 mph79%29.62 "Hg1 mi
9:30 AM82 °FFog.10 mph84%29.62 "Hg1 mi
9:00 AM82 °FFog.10 mph89%29.62 "Hg1 mi
8:30 AM81 °FFog.10 mph89%29.62 "Hg1 mi
8:00 AM81 °FFog.8 mph89%29.62 "Hg1 mi
7:30 AM81 °FFog.6 mph89%29.62 "Hg1 mi
7:00 AM79 °FFog.8 mph94%29.62 "Hg1 mi
6:30 AM79 °FFog.8 mph94%29.62 "Hg1 mi
6:00 AM79 °FFog.6 mph94%29.59 "Hg1 mi
5:30 AM77 °FFog.6 mph100%29.59 "Hg1 mi
5:00 AM79 °FFog.3 mph94%29.59 "Hg1 mi
4:30 AM79 °FFog.3 mph94%29.59 "Hg1 mi
4:00 AM79 °FFog.3 mph94%29.59 "Hg2 mi
3:30 AM79 °FFog.3 mph94%29.59 "Hg2 mi
3:00 AM79 °FFog.1 mph94%29.59 "Hg2 mi
2:00 AM79 °FFog.3 mph94%29.59 "Hg2 mi
1:30 AM79 °FFog.3 mph94%29.59 "Hg2 mi
1:00 AM79 °FFog.1 mph94%29.59 "Hg2 mi
12:30 AM79 °FFog.3 mph94%29.59 "Hg2 mi
12:00 AM81 °FFog.1 mph89%29.62 "Hg2 mi
11:30 PM
Tue, Jul 28
81 °FFog.1 mph89%29.62 "Hg2 mi
11:00 PM81 °FFog.3 mph89%29.62 "Hg2 mi
10:30 PM81 °FFog.6 mph89%29.62 "Hg2 mi
10:00 PM81 °FFog.6 mph89%29.62 "Hg3 mi
9:30 PM81 °FFog.3 mph89%29.65 "Hg3 mi
9:00 PM81 °FFog.3 mph89%29.65 "Hg3 mi
8:30 PM81 °FFog.8 mph89%29.62 "Hg3 mi
8:00 PM81 °FClear.3 mph84%29.62 "Hg4 mi
7:30 PM81 °FClear.3 mph84%29.62 "Hg4 mi
7:00 PM81 °FSunny.6 mph84%29.62 "Hg10 mi
6:30 PM81 °FSunny.6 mph84%29.62 "Hg10 mi
6:00 PM82 °FSunny.8 mph79%29.62 "Hg10 mi
5:30 PM82 °FPassing clouds.8 mph79%29.62 "HgN/A
5:00 PM82 °FSunny.10 mph79%29.62 "Hg10 mi
4:30 PM84 °FPassing clouds.8 mph74%29.62 "HgN/A
4:00 PM84 °FScattered clouds.10 mph74%29.62 "HgN/A
3:30 PM84 °FScattered clouds.10 mph74%29.62 "HgN/A
3:00 PM86 °FScattered clouds.13 mph70%29.62 "HgN/A
2:30 PM88 °FScattered clouds.10 mph66%29.62 "Hg4 mi
2:00 PM88 °FPartly sunny.6 mph66%29.62 "Hg4 mi
1:30 PM84 °FFog.6 mph74%29.65 "Hg3 mi
1:00 PM84 °FFog.8 mph74%29.65 "Hg3 mi
12:30 PM86 °FFog.8 mph75%29.65 "Hg2 mi
11:30 AM84 °FFog.10 mph74%29.68 "Hg2 mi
11:00 AM84 °FFog.10 mph74%29.65 "Hg2 mi
Weather by CustomWeather, © 2015

See weather overviewHow to use our weather pages